Time,TemperatureF,DewpointF,PressureIn,WindDirection,WindDirectionDegrees,WindSpeedMPH,WindSpeedGustMPH,Humidity,HourlyPrecipIn,Conditions,Clouds,dailyrainin,SoftwareType,DateUTC
2013-08-19 00:00:00,67.6,58.3,29.79,ESE,110,0.0,6.0,72,0.00,,BKN018,0.00,VWS V15.00,2013-08-19 05:00:00,
2013-08-19 00:01:00,66.8,57.5,29.80,ESE,112,1.0,2.0,72,0.00,,CLR,0.00,VWS V14.01,2013-08-19 05:01:00,
2013-08-19 00:06:00,66.9,57.6,29.80,ESE,112,0.0,2.0,72,0.00,,CLR,0.00,VWS V14.01,2013-08-19 05:06:00,
2013-08-19 00:11:00,67.1,57.8,29.80,ESE,112,1.0,3.0,72,0.00,,CLR,0.00,VWS V14.01,2013-08-19 05:11:00,
2013-08-19 00:16:00,67.1,57.4,29.80,ESE,112,0.0,3.0,71,0.00,,CLR,0.00,VWS V14.01,2013-08-19 05:16:00,
2013-08-19 00:21:00,67.3,57.6,29.80,ESE,112,0.0,3.0,71,0.00,,CLR,0.00,VWS V14.01,2013-08-19 05:21:00,
2013-08-19 00:26:00,67.3,57.6,29.80,ESE,113,1.0,7.0,71,0.00,,CLR,0.00,VWS V14.01,2013-08-19 05:26:00,
2013-08-19 00:30:00,67.3,57.6,29.81,ESE,113,0.0,7.0,71,0.00,,BKN018,0.00,VWS V15.00,2013-08-19 05:30:00,
2013-08-19 00:31:00,67.3,58.0,29.81,ESE,113,1.0,1.0,72,0.00,,CLR,0.00,VWS V14.01,2013-08-19 05:31:00,
2013-08-19 00:36:00,67.3,58.0,29.81,ESE,113,0.0,3.0,72,0.00,,CLR,0.00,VWS V14.01,2013-08-19 05:36:00,
2013-08-19 00:41:00,67.3,58.0,29.81,ESE,115,1.0,3.0,72,0.00,,CLR,0.00,VWS V14.01,2013-08-19 05:41:00,
2013-08-19 00:46:00,67.3,58.0,29.81,ESE,116,0.0,5.0,72,0.00,,CLR,0.00,VWS V14.01,2013-08-19 05:46:00,
2013-08-19 00:51:00,67.1,58.2,29.81,ESE,116,0.0,5.0,73,0.00,,CLR,0.00,VWS V14.01,2013-08-19 05:51:00,
2013-08-19 00:56:00,67.1,58.2,29.81,ESE,116,0.0,5.0,73,0.00,,CLR,0.00,VWS V14.01,2013-08-19 05:56:00,
2013-08-19 01:00:00,67.1,58.2,29.81,ESE,116,0.0,5.0,73,0.00,,BKN018,0.00,VWS V15.00,2013-08-19 06:00:00,
2013-08-19 01:01:00,67.1,58.2,29.81,ESE,116,4.0,4.0,73,0.00,,CLR,0.00,VWS V14.01,2013-08-19 06:01:00,
2013-08-19 01:06:00,67.1,58.2,29.81,ESE,116,0.0,5.0,73,0.00,,CLR,0.00,VWS V14.01,2013-08-19 06:06:00,
2013-08-19 01:11:00,66.9,58.0,29.81,ESE,116,0.0,5.0,73,0.00,,CLR,0.00,VWS V14.01,2013-08-19 06:11:00,
2013-08-19 01:17:00,66.9,58.3,29.81,ESE,120,0.0,5.0,74,0.00,,CLR,0.00,VWS V14.01,2013-08-19 06:17:00,
2013-08-19 01:22:00,66.8,58.3,29.81,SE,133,1.0,8.0,74,0.00,,CLR,0.00,VWS V14.01,2013-08-19 06:22:00,
2013-08-19 01:27:00,66.8,58.3,29.81,SE,136,0.0,8.0,74,0.00,,CLR,0.00,VWS V14.01,2013-08-19 06:27:00,
2013-08-19 01:30:00,66.6,58.1,29.81,SE,136,0.0,8.0,74,0.00,,BKN018,0.00,VWS V15.00,2013-08-19 06:30:00,
2013-08-19 01:32:00,66.6,58.1,29.81,SE,136,0.0,2.0,74,0.00,,CLR,0.00,VWS V14.01,2013-08-19 06:32:00,
2013-08-19 01:37:00,66.6,58.1,29.81,SE,136,0.0,5.0,74,0.00,,CLR,0.00,VWS V14.01,2013-08-19 06:37:00,
2013-08-19 01:42:00,66.8,58.3,29.81,SE,136,0.0,5.0,74,0.00,,CLR,0.00,VWS V14.01,2013-08-19 06:42:00,
2013-08-19 01:47:00,66.8,57.9,29.82,SE,140,0.0,5.0,73,0.00,,CLR,0.00,VWS V14.01,2013-08-19 06:47:00,
2013-08-19 01:52:00,66.9,58.0,29.82,ESE,123,3.0,5.0,73,0.00,,CLR,0.00,VWS V14.01,2013-08-19 06:52:00,
2013-08-19 01:57:00,66.9,58.0,29.82,SSE,154,1.0,5.0,73,0.00,,CLR,0.00,VWS V14.01,2013-08-19 06:57:00,
2013-08-19 02:00:00,66.9,58.0,29.81,SSE,153,1.0,5.0,73,0.00,,BKN018,0.00,VWS V15.00,2013-08-19 07:00:00,
2013-08-19 02:02:00,66.9,58.0,29.81,SSE,154,6.0,6.0,73,0.00,,CLR,0.00,VWS V14.01,2013-08-19 07:02:00,
2013-08-19 02:07:00,66.9,58.0,29.81,SE,127,1.0,6.0,73,0.00,,CLR,0.00,VWS V14.01,2013-08-19 07:07:00,
2013-08-19 02:12:00,66.8,57.9,29.81,SE,126,0.0,6.0,73,0.00,,CLR,0.00,VWS V14.01,2013-08-19 07:12:00,
2013-08-19 02:17:00,66.6,58.1,29.80,SE,126,1.0,6.0,74,0.00,,CLR,0.00,VWS V14.01,2013-08-19 07:17:00,
2013-08-19 02:22:00,66.4,57.9,29.80,SE,126,0.0,6.0,74,0.00,,CLR,0.00,VWS V14.01,2013-08-19 07:22:00,
2013-08-19 02:27:00,66.4,57.9,29.80,SE,126,2.0,6.0,74,0.00,,CLR,0.00,VWS V14.01,2013-08-19 07:27:00,
2013-08-19 02:30:00,66.6,58.1,29.81,SE,136,0.0,8.0,74,0.00,,BKN018,0.00,VWS V15.00,2013-08-19 07:30:00,
2013-08-19 02:32:00,66.3,57.8,29.79,SE,129,1.0,3.0,74,0.00,,CLR,0.00,VWS V14.01,2013-08-19 07:32:00,
2013-08-19 02:37:00,66.3,57.8,29.79,SE,134,1.0,6.0,74,0.00,,CLR,0.00,VWS V14.01,2013-08-19 07:37:00,
2013-08-19 02:42:00,66.3,57.8,29.79,ESE,120,3.0,7.0,74,0.00,,CLR,0.00,VWS V14.01,2013-08-19 07:42:00,
2013-08-19 02:47:00,66.3,57.8,29.79,ESE,120,1.0,7.0,74,0.00,,CLR,0.00,VWS V14.01,2013-08-19 07:47:00,
2013-08-19 02:52:00,66.3,57.8,29.79,ESE,122,0.0,7.0,74,0.00,,CLR,0.00,VWS V14.01,2013-08-19 07:52:00,
2013-08-19 02:57:00,66.1,57.6,29.79,SSE,151,6.0,7.0,74,0.00,,CLR,0.00,VWS V14.01,2013-08-19 07:57:00,
2013-08-19 03:00:00,66.1,57.6,29.78,SE,126,0.0,7.0,74,0.00,,BKN018,0.00,VWS V15.00,2013-08-19 08:00:00,
2013-08-19 03:02:00,66.1,57.6,29.78,SE,126,1.0,3.0,74,0.00,,CLR,0.00,VWS V14.01,2013-08-19 08:02:00,
2013-08-19 03:07:00,66.1,57.6,29.78,SE,133,4.0,6.0,74,0.00,,CLR,0.00,VWS V14.01,2013-08-19 08:07:00,
2013-08-19 03:12:00,66.0,57.9,29.78,ESE,118,1.0,6.0,75,0.00,,CLR,0.00,VWS V14.01,2013-08-19 08:12:00,
2013-08-19 03:17:00,66.0,57.9,29.79,ESE,123,1.0,6.0,75,0.00,,CLR,0.00,VWS V14.01,2013-08-19 08:17:00,
2013-08-19 03:22:00,66.0,57.9,29.79,SW,215,2.0,7.0,75,0.00,,CLR,0.00,VWS V14.01,2013-08-19 08:22:00,
2013-08-19 03:27:00,65.8,58.0,29.79,SSE,167,6.0,8.0,76,0.00,,CLR,0.00,VWS V14.01,2013-08-19 08:27:00,
2013-08-19 03:30:00,66.0,58.2,29.79,SSE,157,2.0,8.0,76,0.00,,BKN018,0.00,VWS V15.00,2013-08-19 08:30:00,
2013-08-19 03:32:00,66.0,58.2,29.79,SE,134,1.0,5.0,76,0.00,,CLR,0.00,VWS V14.01,2013-08-19 08:32:00,
2013-08-19 03:37:00,66.0,58.2,29.79,SE,125,3.0,6.0,76,0.00,,CLR,0.00,VWS V14.01,2013-08-19 08:37:00,
2013-08-19 03:42:00,66.1,58.0,29.79,SSE,168,1.0,6.0,75,0.00,,CLR,0.00,VWS V14.01,2013-08-19 08:42:00,
2013-08-19 03:47:00,66.3,58.2,29.78,SE,127,0.0,7.0,75,0.00,,CLR,0.00,VWS V14.01,2013-08-19 08:47:00,
2013-08-19 03:52:00,66.6,58.4,29.78,SW,218,2.0,7.0,75,0.00,,CLR,0.00,VWS V14.01,2013-08-19 08:52:00,
2013-08-19 03:57:00,66.8,58.3,29.78,SE,129,3.0,7.0,74,0.00,,CLR,0.00,VWS V14.01,2013-08-19 08:57:00,
2013-08-19 04:00:00,66.8,58.6,29.78,ESE,122,8.0,8.0,75,0.00,,BKN018,0.00,VWS V15.00,2013-08-19 09:00:00,
2013-08-19 04:02:00,66.8,58.3,29.78,South,187,5.0,12.0,74,0.00,,CLR,0.00,VWS V14.01,2013-08-19 09:02:00,
2013-08-19 04:07:00,66.9,58.3,29.78,SE,136,5.0,12.0,74,0.00,,CLR,0.00,VWS V14.01,2013-08-19 09:07:00,
2013-08-19 04:12:00,66.9,58.3,29.78,SE,132,1.0,12.0,74,0.00,,CLR,0.00,VWS V14.01,2013-08-19 09:12:00,
2013-08-19 04:17:00,66.9,58.3,29.78,SSE,153,0.0,12.0,74,0.00,,CLR,0.00,VWS V14.01,2013-08-19 09:17:00,
2013-08-19 04:22:00,66.9,58.7,29.78,ESE,119,5.0,12.0,75,0.00,,CLR,0.00,VWS V14.01,2013-08-19 09:22:00,
2013-08-19 04:27:00,66.8,58.6,29.78,SE,127,2.0,12.0,75,0.00,,CLR,0.00,VWS V14.01,2013-08-19 09:27:00,
2013-08-19 04:30:00,66.8,58.6,29.77,ESE,122,1.0,12.0,75,0.00,,BKN018,0.00,VWS V15.00,2013-08-19 09:30:00,
2013-08-19 04:32:00,66.8,58.6,29.77,ESE,123,1.0,7.0,75,0.00,,CLR,0.00,VWS V14.01,2013-08-19 09:32:00,
2013-08-19 04:37:00,66.8,58.6,29.77,ESE,113,6.0,8.0,75,0.00,,CLR,0.00,VWS V14.01,2013-08-19 09:37:00,
2013-08-19 04:42:00,66.6,58.8,29.77,ESE,113,1.0,8.0,76,0.00,,CLR,0.00,VWS V14.01,2013-08-19 09:42:00,
2013-08-19 04:47:00,66.4,58.6,29.77,ESE,115,0.0,8.0,76,0.00,,CLR,0.00,VWS V14.01,2013-08-19 09:47:00,
2013-08-19 04:52:00,66.4,58.6,29.77,ESE,115,0.0,8.0,76,0.00,,CLR,0.00,VWS V14.01,2013-08-19 09:52:00,
2013-08-19 04:57:00,66.4,58.6,29.77,SE,143,0.0,8.0,76,0.00,,CLR,0.00,VWS V14.01,2013-08-19 09:57:00,
2013-08-19 05:00:00,66.4,58.6,29.77,SE,142,1.0,8.0,76,0.00,,BKN018,0.00,VWS V15.00,2013-08-19 10:00:00,
2013-08-19 05:02:00,66.4,58.6,29.77,SE,142,3.0,3.0,76,0.00,,CLR,0.00,VWS V14.01,2013-08-19 10:02:00,
2013-08-19 05:07:00,66.4,59.0,29.77,SSE,149,0.0,6.0,77,0.00,,CLR,0.00,VWS V14.01,2013-08-19 10:07:00,
2013-08-19 05:12:00,66.4,59.0,29.77,SE,125,2.0,11.0,77,0.00,,CLR,0.00,VWS V14.01,2013-08-19 10:12:00,
2013-08-19 05:17:00,66.4,59.0,29.77,SSE,151,0.0,11.0,77,0.00,,CLR,0.00,VWS V14.01,2013-08-19 10:17:00,
2013-08-19 05:22:00,66.4,59.0,29.77,SSE,158,5.0,11.0,77,0.00,,CLR,0.00,VWS V14.01,2013-08-19 10:22:00,
2013-08-19 05:27:00,66.3,58.9,29.77,SE,125,1.0,11.0,77,0.00,,CLR,0.00,VWS V14.01,2013-08-19 10:27:00,
2013-08-19 05:30:00,66.3,58.9,29.76,SE,140,0.0,11.0,77,0.00,,BKN018,0.00,VWS V15.00,2013-08-19 10:30:00,
2013-08-19 05:32:00,66.3,59.2,29.76,SE,136,5.0,5.0,78,0.00,,CLR,0.00,VWS V14.01,2013-08-19 10:32:00,
2013-08-19 05:37:00,66.1,59.0,29.76,SE,140,0.0,6.0,78,0.00,,CLR,0.00,VWS V14.01,2013-08-19 10:37:00,
2013-08-19 05:42:00,66.1,59.0,29.76,SE,133,2.0,6.0,78,0.00,,CLR,0.00,VWS V14.01,2013-08-19 10:42:00,
2013-08-19 05:47:00,66.1,59.0,29.76,ESE,118,2.0,6.0,78,0.00,,CLR,0.00,VWS V14.01,2013-08-19 10:47:00,
2013-08-19 05:52:00,66.1,59.0,29.76,ESE,123,1.0,6.0,78,0.00,,CLR,0.00,VWS V14.01,2013-08-19 10:52:00,
2013-08-19 05:57:00,66.1,59.0,29.76,ESE,123,1.0,8.0,78,0.00,,CLR,0.00,VWS V14.01,2013-08-19 10:57:00,
2013-08-19 06:00:00,66.1,59.0,29.76,ESE,123,4.0,8.0,78,0.00,,BKN018,0.00,VWS V15.00,2013-08-19 11:00:00,
2013-08-19 06:02:00,66.1,59.0,29.76,SSE,167,0.0,7.0,78,0.00,,CLR,0.00,VWS V14.01,2013-08-19 11:02:00,
2013-08-19 06:07:00,66.3,59.2,29.76,ESE,120,4.0,9.0,78,0.00,,CLR,0.00,VWS V14.01,2013-08-19 11:07:00,
2013-08-19 06:12:00,66.3,59.2,29.76,SE,143,0.0,9.0,78,0.00,,CLR,0.00,VWS V14.01,2013-08-19 11:12:00,
2013-08-19 06:17:00,66.4,59.3,29.76,ESE,108,1.0,10.0,78,0.00,,CLR,0.00,VWS V14.01,2013-08-19 11:17:00,
2013-08-19 06:22:00,66.4,59.3,29.76,SE,126,1.0,10.0,78,0.00,,CLR,0.00,VWS V14.01,2013-08-19 11:22:00,
2013-08-19 06:27:00,66.6,59.9,29.76,SE,125,4.0,10.0,79,0.00,,CLR,0.00,VWS V14.01,2013-08-19 11:27:00,
2013-08-19 06:30:00,66.3,58.9,29.76,SE,140,0.0,11.0,77,0.00,,BKN018,0.00,VWS V15.00,2013-08-19 11:30:00,
2013-08-19 06:32:00,66.6,59.5,29.76,South,170,1.0,6.0,78,0.00,,CLR,0.00,VWS V14.01,2013-08-19 11:32:00,
2013-08-19 06:37:00,66.8,59.7,29.76,SE,130,5.0,8.0,78,0.00,,CLR,0.00,VWS V14.01,2013-08-19 11:37:00,
2013-08-19 06:42:00,66.8,59.7,29.76,ESE,106,3.0,8.0,78,0.00,,CLR,0.00,VWS V14.01,2013-08-19 11:42:00,
2013-08-19 06:47:00,66.8,59.7,29.76,ESE,108,2.0,8.0,78,0.00,,CLR,0.00,VWS V14.01,2013-08-19 11:47:00,
2013-08-19 06:52:00,66.6,60.2,29.76,SSE,156,7.0,10.0,80,0.00,,CLR,0.00,VWS V14.01,2013-08-19 11:52:00,
2013-08-19 06:57:00,66.4,60.0,29.76,SE,139,1.0,10.0,80,0.00,,CLR,0.00,VWS V14.01,2013-08-19 11:57:00,
2013-08-19 07:00:00,66.4,59.7,29.77,WSW,239,2.0,10.0,79,0.00,,BKN018,0.00,VWS V15.00,2013-08-19 12:00:00,
2013-08-19 07:02:00,66.4,59.7,29.77,WSW,239,0.0,2.0,79,0.00,,CLR,0.00,VWS V14.01,2013-08-19 12:02:00,
2013-08-19 07:07:00,66.4,59.7,29.77,ESE,116,0.0,7.0,79,0.00,,CLR,0.00,VWS V14.01,2013-08-19 12:07:00,
2013-08-19 07:12:00,66.4,59.7,29.77,SSE,154,2.0,7.0,79,0.00,,CLR,0.00,VWS V14.01,2013-08-19 12:12:00,
2013-08-19 07:17:00,66.6,59.9,29.77,SSW,194,0.0,7.0,79,0.00,,CLR,0.00,VWS V14.01,2013-08-19 12:17:00,
2013-08-19 07:22:00,66.6,59.9,29.77,SE,136,2.0,7.0,79,0.00,,CLR,0.00,VWS V14.01,2013-08-19 12:22:00,
2013-08-19 07:27:00,66.6,59.9,29.77,SE,132,4.0,7.0,79,0.00,,CLR,0.00,VWS V14.01,2013-08-19 12:27:00,
2013-08-19 07:30:00,66.6,59.5,29.76,SSE,147,2.0,10.0,78,0.00,,BKN018,0.00,VWS V15.00,2013-08-19 12:30:00,
2013-08-19 07:32:00,66.8,60.1,29.77,SE,126,6.0,7.0,79,0.00,,CLR,0.00,VWS V14.01,2013-08-19 12:32:00,
2013-08-19 07:37:00,66.8,60.1,29.77,SE,142,4.0,8.0,79,0.00,,CLR,0.00,VWS V14.01,2013-08-19 12:37:00,
2013-08-19 07:42:00,66.8,60.1,29.77,SE,126,2.0,8.0,79,0.00,,CLR,0.00,VWS V14.01,2013-08-19 12:42:00,
2013-08-19 07:47:00,66.8,60.1,29.77,SE,140,3.0,8.0,79,0.00,,CLR,0.00,VWS V14.01,2013-08-19 12:47:00,
2013-08-19 07:52:00,66.8,60.1,29.77,SE,139,1.0,8.0,79,0.00,,CLR,0.00,VWS V14.01,2013-08-19 12:52:00,
2013-08-19 07:57:00,66.8,60.1,29.77,ESE,123,6.0,8.0,79,0.00,,CLR,0.00,VWS V14.01,2013-08-19 12:57:00,
2013-08-19 08:00:00,66.8,60.1,29.76,SE,130,0.0,8.0,79,0.00,,BKN018,0.00,VWS V15.00,2013-08-19 13:00:00,
2013-08-19 08:02:00,66.8,60.1,29.76,SE,130,1.0,6.0,79,0.00,,CLR,0.00,VWS V14.01,2013-08-19 13:02:00,
2013-08-19 08:07:00,66.8,60.1,29.76,SSE,164,2.0,10.0,79,0.00,,CLR,0.00,VWS V14.01,2013-08-19 13:07:00,
2013-08-19 08:12:00,66.9,60.2,29.76,South,171,3.0,10.0,79,0.00,,CLR,0.00,VWS V14.01,2013-08-19 13:12:00,
2013-08-19 08:17:00,67.1,60.7,29.77,SE,125,6.0,10.0,80,0.00,,CLR,0.00,VWS V14.01,2013-08-19 13:17:00,
2013-08-19 08:22:00,67.3,60.6,29.77,SE,136,2.0,10.0,79,0.00,,CLR,0.00,VWS V14.01,2013-08-19 13:22:00,
2013-08-19 08:27:00,67.4,61.0,29.77,SSE,153,5.0,10.0,80,0.00,,CLR,0.00,VWS V14.01,2013-08-19 13:27:00,
2013-08-19 08:30:00,67.6,60.9,29.76,ESE,122,0.0,10.0,79,0.00,,BKN018,0.00,VWS V15.00,2013-08-19 13:30:00,
2013-08-19 08:32:00,67.6,60.9,29.76,South,182,0.0,8.0,79,0.00,,CLR,0.00,VWS V14.01,2013-08-19 13:32:00,
2013-08-19 08:37:00,67.8,61.1,29.76,ESE,112,2.0,9.0,79,0.00,,CLR,0.00,VWS V14.01,2013-08-19 13:37:00,
2013-08-19 08:42:00,68.1,61.0,29.76,SW,218,2.0,9.0,78,0.00,,CLR,0.00,VWS V14.01,2013-08-19 13:42:00,
2013-08-19 08:47:00,68.3,61.2,29.76,SW,233,0.0,9.0,78,0.00,,CLR,0.00,VWS V14.01,2013-08-19 13:47:00,
2013-08-19 08:52:00,68.4,62.0,29.76,ESE,122,1.0,9.0,80,0.00,,CLR,0.00,VWS V14.01,2013-08-19 13:52:00,
2013-08-19 08:57:00,68.6,61.8,29.76,SW,223,4.0,9.0,79,0.00,,CLR,0.00,VWS V14.01,2013-08-19 13:57:00,
2013-08-19 09:00:00,68.6,61.8,29.76,SE,130,0.0,9.0,79,0.00,,BKN018,0.00,VWS V15.00,2013-08-19 14:00:00,
2013-08-19 09:02:00,68.6,61.8,29.76,SW,229,1.0,6.0,79,0.00,,CLR,0.00,VWS V14.01,2013-08-19 14:02:00,
2013-08-19 09:07:00,68.6,61.5,29.76,SE,142,0.0,7.0,78,0.00,,CLR,0.00,VWS V14.01,2013-08-19 14:07:00,
2013-08-19 09:12:00,68.6,61.5,29.76,ESE,119,1.0,7.0,78,0.00,,CLR,0.00,VWS V14.01,2013-08-19 14:12:00,
2013-08-19 09:17:00,68.6,61.5,29.76,SE,144,2.0,10.0,78,0.00,,CLR,0.00,VWS V14.01,2013-08-19 14:17:00,
2013-08-19 09:22:00,68.8,61.7,29.76,ESE,113,6.0,10.0,78,0.00,,CLR,0.00,VWS V14.01,2013-08-19 14:22:00,
2013-08-19 09:27:00,68.9,61.8,29.76,ESE,120,2.0,10.0,78,0.00,,CLR,0.00,VWS V14.01,2013-08-19 14:27:00,
2013-08-19 09:30:00,68.9,61.8,29.76,SE,140,5.0,10.0,78,0.00,,BKN018,0.00,VWS V15.00,2013-08-19 14:30:00,
2013-08-19 09:32:00,68.9,61.8,29.76,ESE,113,0.0,5.0,78,0.00,,CLR,0.00,VWS V14.01,2013-08-19 14:32:00,
2013-08-19 09:37:00,69.1,61.6,29.76,SE,140,2.0,8.0,77,0.00,,CLR,0.00,VWS V14.01,2013-08-19 14:37:00,
2013-08-19 09:42:00,69.4,62.2,29.76,ESE,116,2.0,8.0,78,0.00,,CLR,0.00,VWS V14.01,2013-08-19 14:42:00,
2013-08-19 09:47:00,69.8,62.3,29.76,SE,134,1.0,8.0,77,0.00,,CLR,0.00,VWS V14.01,2013-08-19 14:47:00,
2013-08-19 09:52:00,70.3,62.8,29.76,SE,137,2.0,8.0,77,0.00,,CLR,0.00,VWS V14.01,2013-08-19 14:52:00,
2013-08-19 09:57:00,70.6,62.3,29.76,SE,129,2.0,9.0,75,0.00,,CLR,0.00,VWS V14.01,2013-08-19 14:57:00,
2013-08-19 10:00:00,70.6,62.7,29.76,SSE,163,7.0,9.0,76,0.00,,BKN018,0.00,VWS V15.00,2013-08-19 15:00:00,
2013-08-19 10:02:00,70.8,62.9,29.76,SSE,147,1.0,7.0,76,0.00,,CLR,0.00,VWS V14.01,2013-08-19 15:02:00,
2013-08-19 10:07:00,70.9,63.0,29.76,SE,142,1.0,7.0,76,0.00,,CLR,0.00,VWS V14.01,2013-08-19 15:07:00,
2013-08-19 10:12:00,71.5,63.2,29.76,SE,125,0.0,7.0,75,0.00,,CLR,0.00,VWS V14.01,2013-08-19 15:12:00,
2013-08-19 10:17:00,71.8,63.1,29.77,South,188,0.0,9.0,74,0.00,,CLR,0.00,VWS V14.01,2013-08-19 15:17:00,
2013-08-19 10:22:00,72.0,63.3,29.77,SW,230,1.0,9.0,74,0.00,,CLR,0.00,VWS V14.01,2013-08-19 15:22:00,
2013-08-19 10:27:00,72.3,63.2,29.77,SSW,205,1.0,9.0,73,0.00,,CLR,0.00,VWS V14.01,2013-08-19 15:27:00,
2013-08-19 10:30:00,72.3,63.2,29.76,SSW,212,2.0,9.0,73,0.00,,BKN018,0.00,VWS V15.00,2013-08-19 15:30:00,
2013-08-19 10:32:00,72.3,62.8,29.76,SE,143,3.0,11.0,72,0.00,,CLR,0.00,VWS V14.01,2013-08-19 15:32:00,
2013-08-19 10:37:00,72.7,63.5,29.76,SE,129,2.0,11.0,73,0.00,,CLR,0.00,VWS V14.01,2013-08-19 15:37:00,
2013-08-19 10:42:00,73.0,63.5,29.76,SE,127,2.0,11.0,72,0.00,,CLR,0.00,VWS V14.01,2013-08-19 15:42:00,
2013-08-19 10:47:00,73.2,64.0,29.76,SSE,147,3.0,11.0,73,0.00,,CLR,0.00,VWS V14.01,2013-08-19 15:47:00,
2013-08-19 10:52:00,73.5,64.3,29.76,SE,126,2.0,11.0,73,0.00,,CLR,0.00,VWS V14.01,2013-08-19 15:52:00,
2013-08-19 10:57:00,73.7,63.7,29.76,South,184,6.0,11.0,71,0.00,,CLR,0.00,VWS V14.01,2013-08-19 15:57:00,
2013-08-19 11:00:00,73.9,64.3,29.76,SSE,157,2.0,11.0,72,0.00,,BKN018,0.00,VWS V15.00,2013-08-19 16:00:00,
2013-08-19 11:02:00,73.9,64.3,29.76,SSE,153,0.0,2.0,72,0.00,,CLR,0.00,VWS V14.01,2013-08-19 16:02:00,
2013-08-19 11:07:00,74.4,64.4,29.76,ESE,109,2.0,7.0,71,0.00,,CLR,0.00,VWS V14.01,2013-08-19 16:07:00,
2013-08-19 11:12:00,74.6,64.6,29.76,ESE,116,2.0,7.0,71,0.00,,CLR,0.00,VWS V14.01,2013-08-19 16:12:00,
2013-08-19 11:17:00,74.6,64.6,29.76,SE,129,0.0,7.0,71,0.00,,CLR,0.00,VWS V14.01,2013-08-19 16:17:00,
2013-08-19 11:22:00,74.9,65.3,29.76,SE,129,0.0,7.0,72,0.00,,CLR,0.00,VWS V14.01,2013-08-19 16:22:00,
2013-08-19 11:27:00,75.1,65.1,29.76,SE,129,0.0,7.0,71,0.00,,CLR,0.00,VWS V14.01,2013-08-19 16:27:00,
2013-08-19 11:30:00,75.3,65.3,29.76,SE,136,2.0,7.0,71,0.00,,BKN018,0.00,VWS V15.00,2013-08-19 16:30:00,
2013-08-19 11:32:00,75.3,64.8,29.76,SW,219,5.0,6.0,70,0.00,,CLR,0.00,VWS V14.01,2013-08-19 16:32:00,
2013-08-19 11:37:00,75.4,64.9,29.76,ESE,122,1.0,6.0,70,0.00,,CLR,0.00,VWS V14.01,2013-08-19 16:37:00,
2013-08-19 11:42:00,75.6,64.7,29.76,SE,133,0.0,8.0,69,0.00,,CLR,0.00,VWS V14.01,2013-08-19 16:42:00,
2013-08-19 11:47:00,75.6,65.1,29.76,SE,127,2.0,8.0,70,0.00,,CLR,0.00,VWS V14.01,2013-08-19 16:47:00,
2013-08-19 11:52:00,75.6,65.1,29.76,ESE,106,6.0,8.0,70,0.00,,CLR,0.00,VWS V14.01,2013-08-19 16:52:00,
2013-08-19 11:57:00,75.4,64.5,29.76,SE,133,2.0,8.0,69,0.00,,CLR,0.00,VWS V14.01,2013-08-19 16:57:00,
2013-08-19 12:00:00,75.4,64.1,29.76,ESE,122,1.0,8.0,68,0.00,,BKN018,0.00,VWS V15.00,2013-08-19 17:00:00,
2013-08-19 12:02:00,75.4,64.9,29.76,SE,125,0.0,3.0,70,0.00,,CLR,0.00,VWS V14.01,2013-08-19 17:02:00,
2013-08-19 12:07:00,75.8,65.3,29.76,SE,125,1.0,8.0,70,0.00,,CLR,0.00,VWS V14.01,2013-08-19 17:07:00,
2013-08-19 12:12:00,76.3,65.8,29.76,SE,139,0.0,8.0,70,0.00,,CLR,0.00,VWS V14.01,2013-08-19 17:12:00,
2013-08-19 12:17:00,76.5,64.7,29.76,ESE,122,1.0,8.0,67,0.00,,CLR,0.00,VWS V14.01,2013-08-19 17:17:00,
2013-08-19 12:22:00,77.0,65.6,29.76,ESE,110,6.0,10.0,68,0.00,,CLR,0.00,VWS V14.01,2013-08-19 17:22:00,
2013-08-19 12:27:00,77.2,65.4,29.76,SE,125,3.0,13.0,67,0.00,,CLR,0.00,VWS V14.01,2013-08-19 17:27:00,
2013-08-19 12:30:00,77.4,65.6,29.75,SSE,158,0.0,13.0,67,0.00,,BKN018,0.00,VWS V15.00,2013-08-19 17:30:00,
2013-08-19 12:32:00,77.6,65.8,29.75,SSE,147,6.0,10.0,67,0.00,,CLR,0.00,VWS V14.01,2013-08-19 17:32:00,
2013-08-19 12:37:00,77.7,65.4,29.75,SE,125,2.0,11.0,66,0.00,,CLR,0.00,VWS V14.01,2013-08-19 17:37:00,
2013-08-19 12:42:00,78.6,65.4,29.75,SSE,150,3.0,11.0,64,0.00,,CLR,0.00,VWS V14.01,2013-08-19 17:42:00,
2013-08-19 12:47:00,78.5,66.2,29.75,SE,146,6.0,12.0,66,0.00,,CLR,0.00,VWS V14.01,2013-08-19 17:47:00,
2013-08-19 12:52:00,78.6,65.4,29.75,SE,125,2.0,12.0,64,0.00,,CLR,0.00,VWS V14.01,2013-08-19 17:52:00,
2013-08-19 12:57:00,79.8,67.4,29.75,South,170,0.0,12.0,66,0.00,,CLR,0.00,VWS V14.01,2013-08-19 17:57:00,
2013-08-19 13:00:00,80.1,66.8,29.75,ESE,119,4.0,12.0,64,0.00,,BKN018,0.00,VWS V15.00,2013-08-19 18:00:00,
2013-08-19 13:03:00,80.3,66.6,29.75,SE,134,7.0,10.0,63,0.00,,CLR,0.00,VWS V14.01,2013-08-19 18:03:00,
2013-08-19 13:08:00,80.5,66.8,29.75,SE,137,10.0,13.0,63,0.00,,CLR,0.00,VWS V14.01,2013-08-19 18:08:00,
2013-08-19 13:13:00,80.3,67.0,29.75,SE,125,7.0,13.0,64,0.00,,CLR,0.00,VWS V14.01,2013-08-19 18:13:00,
2013-08-19 13:18:00,80.5,66.8,29.74,SE,126,2.0,13.0,63,0.00,,CLR,0.00,VWS V14.01,2013-08-19 18:18:00,
2013-08-19 13:23:00,81.1,68.2,29.74,SE,125,2.0,13.0,65,0.00,,CLR,0.00,VWS V14.01,2013-08-19 18:23:00,
2013-08-19 13:28:00,82.0,68.6,29.74,SE,130,2.0,13.0,64,0.00,,CLR,0.00,VWS V14.01,2013-08-19 18:28:00,
2013-08-19 13:30:00,82.0,68.6,29.74,SE,132,9.0,13.0,64,0.00,,BKN018,0.00,VWS V15.00,2013-08-19 18:30:00,
2013-08-19 13:33:00,82.2,67.4,29.74,SE,130,2.0,9.0,61,0.00,,CLR,0.00,VWS V14.01,2013-08-19 18:33:00,
2013-08-19 13:38:00,82.8,67.5,29.74,ESE,105,12.0,13.0,60,0.00,,CLR,0.00,VWS V14.01,2013-08-19 18:38:00,
2013-08-19 13:43:00,82.2,67.4,29.74,ESE,106,7.0,14.0,61,0.00,,CLR,0.00,VWS V14.01,2013-08-19 18:43:00,
2013-08-19 13:48:00,82.8,68.9,29.73,ESE,116,9.0,14.0,63,0.00,,CLR,0.00,VWS V14.01,2013-08-19 18:48:00,
2013-08-19 13:53:00,82.8,68.0,29.73,ESE,122,8.0,14.0,61,0.00,,CLR,0.00,VWS V14.01,2013-08-19 18:53:00,
2013-08-19 13:58:00,83.4,69.0,29.73,ESE,116,2.0,14.0,62,0.00,,CLR,0.00,VWS V14.01,2013-08-19 18:58:00,
2013-08-19 14:00:00,83.8,67.5,29.73,SSW,212,1.0,14.0,58,0.00,,BKN018,0.00,VWS V15.00,2013-08-19 19:00:00,
2013-08-19 14:03:00,84.0,67.7,29.73,SSE,147,5.0,6.0,58,0.00,,CLR,0.00,VWS V14.01,2013-08-19 19:03:00,
2013-08-19 14:08:00,84.3,67.9,29.73,ESE,103,6.0,7.0,58,0.00,,CLR,0.00,VWS V14.01,2013-08-19 19:08:00,
2013-08-19 14:13:00,84.3,67.4,29.73,ESE,105,2.0,11.0,57,0.00,,CLR,0.00,VWS V14.01,2013-08-19 19:13:00,
2013-08-19 14:18:00,84.5,68.1,29.73,ESE,123,6.0,12.0,58,0.00,,CLR,0.00,VWS V14.01,2013-08-19 19:18:00,
2013-08-19 14:23:00,84.5,68.6,29.73,SSW,192,2.0,12.0,59,0.00,,CLR,0.00,VWS V14.01,2013-08-19 19:23:00,
2013-08-19 14:28:00,84.5,67.6,29.73,SE,132,2.0,12.0,57,0.00,,CLR,0.00,VWS V14.01,2013-08-19 19:28:00,
2013-08-19 14:30:00,84.3,67.4,29.72,SSE,166,9.0,13.0,57,0.00,,BKN018,0.00,VWS V15.00,2013-08-19 19:30:00,
2013-08-19 14:33:00,84.3,67.4,29.72,SSE,158,1.0,11.0,57,0.00,,CLR,0.00,VWS V14.01,2013-08-19 19:33:00,
2013-08-19 14:38:00,84.3,66.9,29.72,SSE,158,3.0,14.0,56,0.00,,CLR,0.00,VWS V14.01,2013-08-19 19:38:00,
2013-08-19 14:43:00,84.3,68.4,29.72,ESE,119,3.0,14.0,59,0.00,,CLR,0.00,VWS V14.01,2013-08-19 19:43:00,
2013-08-19 14:48:00,84.3,67.4,29.72,ESE,112,11.0,14.0,57,0.00,,CLR,0.00,VWS V14.01,2013-08-19 19:48:00,
2013-08-19 14:53:00,84.3,68.4,29.72,SW,223,2.0,14.0,59,0.00,,CLR,0.00,VWS V14.01,2013-08-19 19:53:00,
2013-08-19 14:58:00,84.9,69.5,29.72,WSW,252,2.0,14.0,60,0.00,,CLR,0.00,VWS V14.01,2013-08-19 19:58:00,
2013-08-19 15:00:00,85.1,67.7,29.72,SE,143,6.0,14.0,56,0.00,,BKN018,0.00,VWS V15.00,2013-08-19 20:00:00,
2013-08-19 15:03:00,85.3,68.3,29.72,West,259,6.0,7.0,57,0.00,,CLR,0.00,VWS V14.01,2013-08-19 20:03:00,
2013-08-19 15:08:00,85.3,68.3,29.72,East,99,1.0,11.0,57,0.00,,CLR,0.00,VWS V14.01,2013-08-19 20:08:00,
2013-08-19 15:13:00,85.5,67.0,29.72,ESE,122,1.0,11.0,54,0.00,,CLR,0.00,VWS V14.01,2013-08-19 20:13:00,
2013-08-19 15:18:00,85.7,67.2,29.72,SE,134,12.0,14.0,54,0.00,,CLR,0.00,VWS V14.01,2013-08-19 20:18:00,
2013-08-19 15:23:00,85.7,67.2,29.72,South,170,5.0,14.0,54,0.00,,CLR,0.00,VWS V14.01,2013-08-19 20:23:00,
2013-08-19 15:28:00,85.9,68.4,29.72,SSW,201,7.0,14.0,56,0.00,,CLR,0.00,VWS V14.01,2013-08-19 20:28:00,
2013-08-19 15:30:00,86.1,67.0,29.71,SE,132,2.0,14.0,53,0.00,,BKN018,0.00,VWS V15.00,2013-08-19 20:30:00,
2013-08-19 15:33:00,86.3,67.2,29.71,ESE,113,6.0,7.0,53,0.00,,CLR,0.00,VWS V14.01,2013-08-19 20:33:00,
2013-08-19 15:38:00,86.5,67.9,29.71,SE,132,1.0,7.0,54,0.00,,CLR,0.00,VWS V14.01,2013-08-19 20:38:00,
2013-08-19 15:43:00,86.7,67.5,29.71,East,99,10.0,10.0,53,0.00,,CLR,0.00,VWS V14.01,2013-08-19 20:43:00,
2013-08-19 15:48:00,85.5,67.5,29.71,ESE,116,13.0,13.0,55,0.00,,CLR,0.00,VWS V14.01,2013-08-19 20:48:00,
2013-08-19 15:53:00,84.9,68.0,29.71,SE,139,12.0,13.0,57,0.00,,CLR,0.00,VWS V14.01,2013-08-19 20:53:00,
2013-08-19 15:58:00,84.9,68.0,29.71,ESE,112,3.0,13.0,57,0.00,,CLR,0.00,VWS V14.01,2013-08-19 20:58:00,
2013-08-19 16:00:00,85.3,68.4,29.70,ESE,113,2.0,13.0,57,0.00,,BKN018,0.00,VWS V15.00,2013-08-19 21:00:00,
2013-08-19 16:03:00,85.7,67.2,29.70,ESE,120,3.0,13.0,54,0.00,,CLR,0.00,VWS V14.01,2013-08-19 21:03:00,
2013-08-19 16:08:00,85.9,66.8,29.70,ESE,122,5.0,13.0,53,0.00,,CLR,0.00,VWS V14.01,2013-08-19 21:08:00,
2013-08-19 16:13:00,85.7,67.2,29.70,ESE,123,4.0,13.0,54,0.00,,CLR,0.00,VWS V14.01,2013-08-19 21:13:00,
2013-08-19 16:18:00,85.5,67.5,29.70,South,180,3.0,13.0,55,0.00,,CLR,0.00,VWS V14.01,2013-08-19 21:18:00,
2013-08-19 16:23:00,85.5,67.5,29.70,ESE,110,3.0,13.0,55,0.00,,CLR,0.00,VWS V14.01,2013-08-19 21:23:00,
2013-08-19 16:28:00,84.9,68.0,29.70,SE,132,3.0,16.0,57,0.00,,CLR,0.00,VWS V14.01,2013-08-19 21:28:00,
2013-08-19 16:30:00,84.7,67.8,29.70,SE,133,8.0,16.0,57,0.00,,BKN018,0.00,VWS V15.00,2013-08-19 21:30:00,
2013-08-19 16:33:00,84.5,67.1,29.70,SSE,166,9.0,16.0,56,0.00,,CLR,0.00,VWS V14.01,2013-08-19 21:33:00,
2013-08-19 16:38:00,84.1,67.7,29.70,SE,134,2.0,16.0,58,0.00,,CLR,0.00,VWS V14.01,2013-08-19 21:38:00,
2013-08-19 16:43:00,84.5,67.6,29.70,WSW,242,2.0,16.0,57,0.00,,CLR,0.00,VWS V14.01,2013-08-19 21:43:00,
2013-08-19 16:48:00,84.9,68.0,29.70,SE,129,0.0,16.0,57,0.00,,CLR,0.00,VWS V14.01,2013-08-19 21:48:00,
2013-08-19 16:53:00,85.1,68.2,29.70,ESE,120,2.0,16.0,57,0.00,,CLR,0.00,VWS V14.01,2013-08-19 21:53:00,
2013-08-19 16:58:00,84.7,67.8,29.70,SSE,156,6.0,16.0,57,0.00,,CLR,0.00,VWS V14.01,2013-08-19 21:58:00,
2013-08-19 17:00:00,85.3,68.4,29.70,ESE,113,2.0,13.0,57,0.00,,BKN018,0.00,VWS V15.00,2013-08-19 22:00:00,
2013-08-19 17:03:00,84.3,68.9,29.70,SE,134,8.0,8.0,60,0.00,,CLR,0.00,VWS V14.01,2013-08-19 22:03:00,
2013-08-19 17:08:00,84.1,68.7,29.70,SSE,150,0.0,8.0,60,0.00,,CLR,0.00,VWS V14.01,2013-08-19 22:08:00,
2013-08-19 17:13:00,84.0,67.7,29.70,SE,144,2.0,17.0,58,0.00,,CLR,0.00,VWS V14.01,2013-08-19 22:13:00,
2013-08-19 17:18:00,83.8,68.0,29.69,SE,132,6.0,17.0,59,0.00,,CLR,0.00,VWS V14.01,2013-08-19 22:18:00,
2013-08-19 17:23:00,84.0,68.1,29.69,ESE,122,10.0,17.0,59,0.00,,CLR,0.00,VWS V14.01,2013-08-19 22:23:00,
2013-08-19 17:28:00,84.1,68.2,29.69,SE,134,4.0,17.0,59,0.00,,CLR,0.00,VWS V14.01,2013-08-19 22:28:00,
2013-08-19 17:30:00,84.1,68.2,29.69,ESE,118,4.0,17.0,59,0.00,,BKN018,0.00,VWS V15.00,2013-08-19 22:30:00,
2013-08-19 17:33:00,84.1,68.2,29.69,SE,126,8.0,13.0,59,0.00,,CLR,0.00,VWS V14.01,2013-08-19 22:33:00,
2013-08-19 17:38:00,84.0,68.6,29.69,ESE,110,3.0,13.0,60,0.00,,CLR,0.00,VWS V14.01,2013-08-19 22:38:00,
2013-08-19 17:43:00,84.1,68.2,29.69,SE,129,4.0,16.0,59,0.00,,CLR,0.00,VWS V14.01,2013-08-19 22:43:00,
2013-08-19 17:48:00,84.7,68.8,29.68,South,178,5.0,16.0,59,0.00,,CLR,0.00,VWS V14.01,2013-08-19 22:48:00,
2013-08-19 17:53:00,84.9,69.0,29.68,ESE,115,9.0,16.0,59,0.00,,CLR,0.00,VWS V14.01,2013-08-19 22:53:00,
2013-08-19 17:58:00,84.3,68.4,29.68,ESE,106,6.0,16.0,59,0.00,,CLR,0.00,VWS V14.01,2013-08-19 22:58:00,
2013-08-19 18:00:00,84.1,68.2,29.68,SE,144,7.0,16.0,59,0.00,,BKN018,0.00,VWS V15.00,2013-08-19 23:00:00,
2013-08-19 18:03:00,83.8,68.9,29.68,ESE,122,4.0,8.0,61,0.00,,CLR,0.00,VWS V14.01,2013-08-19 23:03:00,
2013-08-19 18:08:00,83.4,68.1,29.68,ESE,123,1.0,12.0,60,0.00,,CLR,0.00,VWS V14.01,2013-08-19 23:08:00,
2013-08-19 18:13:00,82.8,68.0,29.68,ESE,108,5.0,12.0,61,0.00,,CLR,0.00,VWS V14.01,2013-08-19 23:13:00,
2013-08-19 18:18:00,82.8,68.0,29.68,SE,136,9.0,12.0,61,0.00,,CLR,0.00,VWS V14.01,2013-08-19 23:18:00,
2013-08-19 18:23:00,82.8,68.0,29.68,ESE,118,2.0,12.0,61,0.00,,CLR,0.00,VWS V14.01,2013-08-19 23:23:00,
2013-08-19 18:28:00,82.8,68.0,29.68,SE,144,6.0,14.0,61,0.00,,CLR,0.00,VWS V14.01,2013-08-19 23:28:00,
2013-08-19 18:30:00,82.8,68.0,29.68,SE,139,2.0,14.0,61,0.00,,BKN018,0.00,VWS V15.00,2013-08-19 23:30:00,
2013-08-19 18:33:00,82.8,68.0,29.68,SSE,150,10.0,10.0,61,0.00,,CLR,0.00,VWS V14.01,2013-08-19 23:33:00,
2013-08-19 18:38:00,82.6,68.3,29.68,SE,142,7.0,11.0,62,0.00,,CLR,0.00,VWS V14.01,2013-08-19 23:38:00,
2013-08-19 18:43:00,82.6,68.3,29.68,ESE,122,2.0,12.0,62,0.00,,CLR,0.00,VWS V14.01,2013-08-19 23:43:00,
2013-08-19 18:48:00,82.6,68.7,29.68,SE,139,0.0,12.0,63,0.00,,CLR,0.00,VWS V14.01,2013-08-19 23:48:00,
2013-08-19 18:53:00,82.4,68.6,29.68,SE,126,2.0,12.0,63,0.00,,CLR,0.00,VWS V14.01,2013-08-19 23:53:00,
2013-08-19 18:58:00,82.2,68.8,29.68,SE,125,2.0,12.0,64,0.00,,CLR,0.00,VWS V14.01,2013-08-19 23:58:00,
2013-08-19 19:00:00,82.2,68.4,29.68,SE,134,2.0,12.0,63,0.00,,BKN018,0.00,VWS V15.00,2013-08-20 00:00:00,
2013-08-19 19:03:00,82.0,68.2,29.68,SE,142,1.0,8.0,63,0.00,,CLR,0.00,VWS V14.01,2013-08-20 00:03:00,
2013-08-19 19:08:00,81.6,68.2,29.68,ESE,108,2.0,8.0,64,0.00,,CLR,0.00,VWS V14.01,2013-08-20 00:08:00,
2013-08-19 19:13:00,81.4,68.5,29.68,ESE,108,1.0,8.0,65,0.00,,CLR,0.00,VWS V14.01,2013-08-20 00:13:00,
2013-08-19 19:18:00,81.1,68.2,29.68,SE,133,6.0,8.0,65,0.00,,CLR,0.00,VWS V14.01,2013-08-20 00:18:00,
2013-08-19 19:23:00,80.7,68.3,29.68,ESE,122,1.0,8.0,66,0.00,,CLR,0.00,VWS V14.01,2013-08-20 00:23:00,
2013-08-19 19:28:00,80.3,67.9,29.68,ESE,119,1.0,8.0,66,0.00,,CLR,0.00,VWS V14.01,2013-08-20 00:28:00,
2013-08-19 19:30:00,80.3,67.9,29.68,ESE,120,6.0,8.0,66,0.00,,BKN018,0.00,VWS V15.00,2013-08-20 00:30:00,
2013-08-19 19:33:00,80.1,67.7,29.68,ESE,122,1.0,6.0,66,0.00,,CLR,0.00,VWS V14.01,2013-08-20 00:33:00,
2013-08-19 19:38:00,79.9,67.5,29.68,SE,129,1.0,8.0,66,0.00,,CLR,0.00,VWS V14.01,2013-08-20 00:38:00,
2013-08-19 19:43:00,79.8,67.4,29.68,SE,129,3.0,8.0,66,0.00,,CLR,0.00,VWS V14.01,2013-08-20 00:43:00,
2013-08-19 19:48:00,79.6,67.7,29.68,SE,130,2.0,8.0,67,0.00,,CLR,0.00,VWS V14.01,2013-08-20 00:48:00,
2013-08-19 19:53:00,79.4,67.5,29.68,SE,132,5.0,8.0,67,0.00,,CLR,0.00,VWS V14.01,2013-08-20 00:53:00,
2013-08-19 19:58:00,79.0,67.6,29.68,SE,127,5.0,9.0,68,0.00,,CLR,0.00,VWS V14.01,2013-08-20 00:58:00,
2013-08-19 20:00:00,79.0,67.6,29.68,SE,127,2.0,9.0,68,0.00,,BKN018,0.00,VWS V15.00,2013-08-20 01:00:00,
2013-08-19 20:03:00,78.8,67.8,29.68,SE,127,0.0,5.0,69,0.00,,CLR,0.00,VWS V14.01,2013-08-20 01:03:00,
2013-08-19 20:08:00,78.5,67.5,29.68,SE,127,0.0,5.0,69,0.00,,CLR,0.00,VWS V14.01,2013-08-20 01:08:00,
2013-08-19 20:13:00,78.3,67.7,29.68,SE,127,0.0,5.0,70,0.00,,CLR,0.00,VWS V14.01,2013-08-20 01:13:00,
2013-08-19 20:18:00,77.9,67.8,29.68,SE,127,0.0,5.0,71,0.00,,CLR,0.00,VWS V14.01,2013-08-20 01:18:00,
2013-08-19 20:23:00,77.6,67.9,29.68,SE,127,0.0,5.0,72,0.00,,CLR,0.00,VWS V14.01,2013-08-20 01:23:00,
2013-08-19 20:28:00,77.4,68.5,29.68,ESE,123,1.0,5.0,74,0.00,,CLR,0.00,VWS V14.01,2013-08-20 01:28:00,
2013-08-19 20:30:00,77.2,68.3,29.68,ESE,123,3.0,5.0,74,0.00,,BKN018,0.00,VWS V15.00,2013-08-20 01:30:00,
2013-08-19 20:33:00,77.0,68.1,29.68,ESE,123,3.0,6.0,74,0.00,,CLR,0.00,VWS V14.01,2013-08-20 01:33:00,
2013-08-19 20:38:00,76.8,67.9,29.68,ESE,123,2.0,6.0,74,0.00,,CLR,0.00,VWS V14.01,2013-08-20 01:38:00,
2013-08-19 20:43:00,76.8,67.9,29.68,SE,133,6.0,8.0,74,0.00,,CLR,0.00,VWS V14.01,2013-08-20 01:43:00,
2013-08-19 20:48:00,76.8,67.5,29.69,SE,142,2.0,8.0,73,0.00,,CLR,0.00,VWS V14.01,2013-08-20 01:48:00,
2013-08-19 20:53:00,76.8,67.5,29.69,SE,129,7.0,10.0,73,0.00,,CLR,0.00,VWS V14.01,2013-08-20 01:53:00,
2013-08-19 20:58:00,76.7,67.0,29.69,ESE,103,2.0,10.0,72,0.00,,CLR,0.00,VWS V14.01,2013-08-20 01:58:00,
2013-08-19 21:00:00,79.0,67.6,29.68,SE,127,2.0,9.0,68,0.00,,BKN018,0.00,VWS V15.00,2013-08-20 02:00:00,
2013-08-19 21:04:00,76.7,67.0,29.69,SE,127,5.0,8.0,72,0.00,,CLR,0.00,VWS V14.01,2013-08-20 02:04:00,
2013-08-19 21:09:00,76.7,67.0,29.69,SSE,168,7.0,9.0,72,0.00,,CLR,0.00,VWS V14.01,2013-08-20 02:09:00,
2013-08-19 21:14:00,76.7,67.0,29.69,SE,130,2.0,9.0,72,0.00,,CLR,0.00,VWS V14.01,2013-08-20 02:14:00,
2013-08-19 21:19:00,76.5,67.2,29.69,ESE,119,2.0,9.0,73,0.00,,CLR,0.00,VWS V14.01,2013-08-20 02:19:00,
2013-08-19 21:24:00,76.1,67.2,29.69,ESE,118,2.0,9.0,74,0.00,,CLR,0.00,VWS V14.01,2013-08-20 02:24:00,
2013-08-19 21:29:00,75.8,67.3,29.69,ESE,109,1.0,9.0,75,0.00,,CLR,0.00,VWS V14.01,2013-08-20 02:29:00,
2013-08-19 21:30:00,77.2,68.3,29.68,ESE,123,3.0,5.0,74,0.00,,BKN018,0.00,VWS V15.00,2013-08-20 02:30:00,
2013-08-19 21:34:00,75.4,67.3,29.69,ESE,116,5.0,7.0,76,0.00,,CLR,0.00,VWS V14.01,2013-08-20 02:34:00,
2013-08-19 21:39:00,75.3,67.2,29.69,SE,136,3.0,9.0,76,0.00,,CLR,0.00,VWS V14.01,2013-08-20 02:39:00,
2013-08-19 21:44:00,75.3,67.2,29.69,SE,129,4.0,9.0,76,0.00,,CLR,0.00,VWS V14.01,2013-08-20 02:44:00,
2013-08-19 21:49:00,75.3,67.2,29.70,ESE,118,4.0,11.0,76,0.00,,CLR,0.00,VWS V14.01,2013-08-20 02:49:00,
2013-08-19 21:54:00,75.3,67.2,29.70,SE,132,8.0,11.0,76,0.00,,CLR,0.00,VWS V14.01,2013-08-20 02:54:00,
2013-08-19 21:59:00,75.3,67.2,29.70,SE,133,2.0,11.0,76,0.00,,CLR,0.00,VWS V14.01,2013-08-20 02:59:00,
2013-08-19 22:00:00,75.3,67.2,29.70,SE,133,3.0,11.0,76,0.00,,BKN018,0.00,VWS V15.00,2013-08-20 03:00:00,
2013-08-19 22:04:00,75.3,67.2,29.70,ESE,118,8.0,8.0,76,0.00,,CLR,0.00,VWS V14.01,2013-08-20 03:04:00,
2013-08-19 22:09:00,75.1,66.6,29.70,ESE,108,10.0,13.0,75,0.00,,CLR,0.00,VWS V14.01,2013-08-20 03:09:00,
2013-08-19 22:14:00,75.1,66.6,29.70,SE,134,2.0,13.0,75,0.00,,CLR,0.00,VWS V14.01,2013-08-20 03:14:00,
2013-08-19 22:19:00,75.1,66.6,29.70,ESE,119,6.0,13.0,75,0.00,,CLR,0.00,VWS V14.01,2013-08-20 03:19:00,
2013-08-19 22:24:00,75.1,66.2,29.70,SE,125,7.0,13.0,74,0.00,,CLR,0.00,VWS V14.01,2013-08-20 03:24:00,
2013-08-19 22:29:00,75.1,66.2,29.70,SW,221,2.0,13.0,74,0.00,,CLR,0.00,VWS V14.01,2013-08-20 03:29:00,
2013-08-19 22:30:00,75.1,66.2,29.70,ESE,115,5.0,13.0,74,0.00,,BKN018,0.00,VWS V15.00,2013-08-20 03:30:00,
2013-08-19 22:34:00,75.1,66.2,29.70,South,171,2.0,9.0,74,0.00,,CLR,0.00,VWS V14.01,2013-08-20 03:34:00,
2013-08-19 22:39:00,75.1,66.2,29.70,SE,129,3.0,11.0,74,0.00,,CLR,0.00,VWS V14.01,2013-08-20 03:39:00,
2013-08-19 22:44:00,75.1,65.9,29.70,SE,125,4.0,11.0,73,0.00,,CLR,0.00,VWS V14.01,2013-08-20 03:44:00,
2013-08-19 22:49:00,75.1,65.9,29.70,SE,125,6.0,11.0,73,0.00,,CLR,0.00,VWS V14.01,2013-08-20 03:49:00,
2013-08-19 22:54:00,75.1,65.9,29.70,ESE,110,4.0,11.0,73,0.00,,CLR,0.00,VWS V14.01,2013-08-20 03:54:00,
2013-08-19 22:59:00,74.9,65.7,29.70,SE,129,2.0,11.0,73,0.00,,CLR,0.00,VWS V14.01,2013-08-20 03:59:00,
2013-08-19 23:00:00,74.9,65.7,29.70,SE,125,2.0,11.0,73,0.00,,BKN018,0.00,VWS V15.00,2013-08-20 04:00:00,
2013-08-19 23:01:00,74.9,65.7,29.70,SE,125,6.0,6.0,73,0.00,,CLR,0.00,VWS V14.01,2013-08-20 04:01:00,
2013-08-19 23:06:00,74.7,65.9,29.70,South,170,3.0,8.0,74,0.00,,CLR,0.00,VWS V14.01,2013-08-20 04:06:00,
2013-08-19 23:11:00,74.6,65.8,29.70,SE,132,0.0,8.0,74,0.00,,CLR,0.00,VWS V14.01,2013-08-20 04:11:00,
2013-08-19 23:16:00,74.6,65.8,29.70,ESE,118,8.0,12.0,74,0.00,,CLR,0.00,VWS V14.01,2013-08-20 04:16:00,
2013-08-19 23:21:00,74.4,65.6,29.70,SSE,153,7.0,12.0,74,0.00,,CLR,0.00,VWS V14.01,2013-08-20 04:21:00,
2013-08-19 23:26:00,74.4,65.6,29.70,SE,126,4.0,12.0,74,0.00,,CLR,0.00,VWS V14.01,2013-08-20 04:26:00,
2013-08-19 23:30:00,74.2,65.8,29.70,ESE,120,8.0,12.0,75,0.00,,BKN018,0.00,VWS V15.00,2013-08-20 04:30:00,
2013-08-19 23:31:00,74.2,65.8,29.70,SE,130,10.0,10.0,75,0.00,,CLR,0.00,VWS V14.01,2013-08-20 04:31:00,
2013-08-19 23:36:00,74.0,65.6,29.70,ESE,122,5.0,11.0,75,0.00,,CLR,0.00,VWS V14.01,2013-08-20 04:36:00,
2013-08-19 23:41:00,73.9,65.9,29.70,SE,127,6.0,11.0,76,0.00,,CLR,0.00,VWS V14.01,2013-08-20 04:41:00,
2013-08-19 23:46:00,73.7,65.7,29.69,SE,143,4.0,11.0,76,0.00,,CLR,0.00,VWS V14.01,2013-08-20 04:46:00,
2013-08-19 23:51:00,73.5,65.5,29.69,ESE,116,3.0,11.0,76,0.00,,CLR,0.00,VWS V14.01,2013-08-20 04:51:00,
2013-08-19 23:56:00,73.5,65.9,29.69,ESE,113,6.0,11.0,77,0.00,,CLR,0.00,VWS V14.01,2013-08-20 04:56:00,